[TLELIST] Archives

 

[list_settings.list_name] Current TLEs

December 9th 2013 PDT

HST 1 20580U 90037B 13342.86116394 .00003026 00000-0 19991-3 0 3903 2 20580 028.4690 207.2508 0003502 053.1603 042.8379 15.04317898 96013 ISS (ZARYA) 1 25544U 98067A 13343.08821337 .00015048 00000-0 26296-3 0 1961 2 25544 051.6512 321.7367 0001379 111.3385 007.9998 15.50872535861832 CXO 1 25867U 99040B 13345.12024190 -.00000913 00000-0 00000+0 0 9695 2 25867 076.3323 329.5723 8368453 276.1704 000.0435 00.37802581 11209 ____________________________________________________________________ These 2-Line ...Continue Reading

[list_settings.list_name] Current TLEs

December 8th 2013 PDT

HST 1 20580U 90037B 13341.79658882 .00002954 00000-0 19489-3 0 3896 2 20580 028.4691 214.2366 0003437 042.9700 036.4202 15.04309615 95858 ISS (ZARYA) 1 25544U 98067A 13342.31863976 .00013656 00000-0 23963-3 0 1917 2 25544 051.6511 325.5536 0001441 106.4403 033.4468 15.50844934861712 CXO 1 25867U 99040B 13342.47463597 -.00000719 00000-0 00000+0 0 9838 2 25867 076.3246 329.6976 8374974 276.1966 359.9385 00.37802892 11192 ____________________________________________________________________ These 2-Line ...Continue Reading

[list_settings.list_name] Current TLEs

December 7th 2013 PDT

HST 1 20580U 90037B 13340.14776047 .00002743 00000-0 18015-3 0 3887 2 20580 028.4692 225.0565 0003410 026.6498 105.8953 15.04301127 95612 ISS (ZARYA) 1 25544U 98067A 13341.41930148 .00012802 00000-0 22537-3 0 1832 2 25544 051.6512 330.0156 0001485 104.7851 050.7805 15.50818078861579 CXO 1 25867U 99040B 13342.47463597 -.00000719 00000-0 00000+0 0 9838 2 25867 076.3246 329.6976 8374974 276.1966 359.9385 00.37802892 11192 ____________________________________________________________________ These 2-Line ...Continue Reading

[list_settings.list_name] Current TLEs

December 6th 2013 PDT

HST 1 20580U 90037B 13340.14776047 .00002743 00000-0 18015-3 0 3887 2 20580 028.4692 225.0565 0003410 026.6498 105.8953 15.04301127 95612 ISS (ZARYA) 1 25544U 98067A 13340.45369823 .00012650 00000-0 22299-3 0 1758 2 25544 051.6502 334.8012 0001332 106.4691 054.6712 15.50792049861426 CXO 1 25867U 99040B 13342.47463597 -.00000719 00000-0 00000+0 0 9838 2 25867 076.3246 329.6976 8374974 276.1966 359.9385 00.37802892 11192 ____________________________________________________________________ These 2-Line ...Continue Reading

[list_settings.list_name] Current TLEs

December 5th 2013 PDT

HST 1 20580U 90037B 13338.16132502 .00002445 00000-0 15932-3 0 3871 2 20580 028.4695 238.0919 0003301 006.1787 147.6659 15.04291874 95316 ISS (ZARYA) 1 25544U 98067A 13339.48206744 .00011471 00000-0 20317-3 0 1693 2 25544 051.6494 339.6201 0001432 109.1345 023.9876 15.50762265861276 CXO 1 25867U 99040B 13339.82755351 -.00000550 00000-0 00000+0 0 9827 2 25867 076.3118 329.8434 8380866 276.2001 359.6965 00.37800992 11188 ____________________________________________________________________ These 2-Line ...Continue Reading

[list_settings.list_name] Current TLEs

December 4th 2013 PDT

HST 1 20580U 90037B 13338.16132502 .00002445 00000-0 15932-3 0 3871 2 20580 028.4695 238.0919 0003301 006.1787 147.6659 15.04291874 95316 ISS (ZARYA) 1 25544U 98067A 13338.26651620 .00010965 00000-0 19478-3 0 1610 2 25544 051.6499 345.6500 0001289 101.7848 080.7990 15.50731341861084 CXO 1 25867U 99040B 13339.82755351 -.00000550 00000-0 00000+0 0 9827 2 25867 076.3118 329.8434 8380866 276.2001 359.6965 00.37800992 11188 ____________________________________________________________________ These 2-Line ...Continue Reading

[list_settings.list_name] Current TLEs

December 3rd 2013 PDT

HST 1 20580U 90037B 13336.88508682 .00002476 00000-0 16152-3 0 3862 2 20580 028.4699 246.4669 0003274 353.2020 075.6176 15.04285887 95119 ISS (ZARYA) 1 25544U 98067A 13337.47622454 .00010973 00000-0 19504-3 0 1557 2 25544 051.6500 349.5697 0001297 096.9366 350.8491 15.50713342860960 CXO 1 25867U 99040B 13339.82755351 -.00000550 00000-0 00000+0 0 9827 2 25867 076.3118 329.8434 8380866 276.2001 359.6965 00.37800992 11188 ____________________________________________________________________ These 2-Line ...Continue Reading

[list_settings.list_name] Current TLEs

December 2nd 2013 PDT

HST 1 20580U 90037B 13335.23744455 .00002746 00000-0 18045-3 0 3852 2 20580 028.4698 257.2726 0003233 335.4473 153.1102 15.04277395 94879 ISS (ZARYA) 1 25544U 98067A 13336.45714267 .00012106 00000-0 21450-3 0 1483 2 25544 051.6501 354.6240 0001198 097.0746 057.9054 15.50692874860805 CXO 1 25867U 99040B 13337.18148733 -.00000576 00000-0 00000+0 0 9811 2 25867 076.3010 329.9891 8385252 276.1944 359.6325 00.37801067 11179 ____________________________________________________________________ These 2-Line ...Continue Reading

[list_settings.list_name] Current TLEs

December 1st 2013 PDT

HST 1 20580U 90037B 13334.17728598 .00002549 00000-0 16670-3 0 3846 2 20580 028.4700 264.2292 0003188 324.4279 171.6356 15.04271282 94718 ISS (ZARYA) 1 25544U 98067A 13335.43560185 .00004701 00000-0 88237-4 0 1410 2 25544 051.6479 359.6841 0001405 107.8214 100.6979 15.50665451860647 CXO 1 25867U 99040B 13337.18148733 -.00000576 00000-0 00000+0 0 9811 2 25867 076.3010 329.9891 8385252 276.1944 359.6325 00.37801067 11179 ____________________________________________________________________ These 2-Line ...Continue Reading

[list_settings.list_name] Current TLEs

November 30th 2013 PDT

HST 1 20580U 90037B 13334.17728598 .00002549 00000-0 16670-3 0 3846 2 20580 028.4700 264.2292 0003188 324.4279 171.6356 15.04271282 94718 ISS (ZARYA) 1 25544U 98067A 13334.44562944 .00009794 00000-0 17538-3 0 1338 2 25544 051.6529 004.5966 0001322 092.8204 345.6621 15.50641618860494 CXO 1 25867U 99040B 13337.18148733 -.00000576 00000-0 00000+0 0 9811 2 25867 076.3010 329.9891 8385252 276.1944 359.6325 00.37801067 11179 ____________________________________________________________________ These 2-Line ...Continue Reading
  • This mailing list is a public mailing list - anyone may join or leave, at any time.
  • This mailing list is announce-only.

International Space Station (ISS) / Hubble Space Telescope (HST) / Chandra X-Ray Observatory Orbital Data via EMAIL

Privacy Policy:

Private list